STARLINK-32885, 62958

Orbit data source: Space-Track

STARLINK-32885, 62958 is a payload satellite owned by SpaceX/Seattle (US) in LEO that was launched on Tue, 11 Feb 2025 UTC via an FALCON 9 launch vehicle from the Air Force Western Test Range (AFWTR). Payload-class satellites include a variety of spacecraft equipped with specific instruments for various scientific and technological missions. These include communications satellites like Starlink; space stations such as the ISS; scientific satellites like the Hubble; Earth observation satellites from companies like Planet Labs, Umbra, and HawkEye 360; GPS; miniature CubeSats for education and research; and military/defense satellites.

Loading next visibility...
Identifier
62958, 2025-029L
Orbit
LEO
Country
Flag of USUS
Related business
Manufacturer
SpaceX/Seattle
Mission
Operational Commercial Communications
Bus & Motor
STARLINK V2M, Unknown motor
Mass
730 kg wet, ~700 kg dry
Launch date (UTC)
2025-02-11 (1 year ago)
Launch vehicle
FALCON 9
Launch site
Air Force Western Test Range (AFWTR)
Object type
Payload
Rocket body
Debris
Shape & HBR
Box + 2 Pan, 17.7 m
Radar Cross Section
33.884 m², Large (>1 m²)

Expand to show TLE details & history
Last TLE update: 1 day ago

TLE from 1 day ago
0 STARLINK-32885
1 62958U 25029L   26170.58200403  .00018502  00000-0  55734-3 0  9999
2 62958  53.1607 115.9208 0001097 103.6926 256.4198 15.34401246 76967
Epoch: 2026-06-19T13:58Z
TLE epoch observation values (Epoch: 2026-06-19T13:58:05.148Z)
Latitude
-0.00007°
Longitude
-1.40962°
Altitude
463.777 km
Speed
7.636 km/s
True Right ascension
07h 43m 40s
True Declination
0° 00' 00"
Sunlit
Object was in daylight at epoch
Visualization orbit readout
Latitude
Unknown
Longitude
Unknown
Altitude
Unknown
Speed
Unknown
Apparent Right ascension
Unknown
Apparent Declination
Unknown
Sunlit
N/A
Visualization observer readout
Local Sidereal Time
07:17:35
Azimuth
Unknown
Elevation
Unknown
Doppler factor
Unknown
Orbital elements
Apogee altitude
463.707 km
Perigee altitude
462.206 km
Semi-major axis
6,841.093 km
Eccentricity
0.00011
Inclination
53.1607°
RAAN
115.9208°
Arg. of periapsis
103.6926°
True anomaly
256.40758°
Mean anomaly
256.4198°
Eccentric anomaly
256.41369°
Mean motion
3.83579 °/min
Orbital period
93.85 mins
BSTAR
0.00055734
Loading maneuver chart data...
Computing Atmospheric mass density...
Loading historical data...
Loading historical data...
Loading historical data...
Loading historical data...
Loading historical data...
Loading historical data...
Loading historical data...

Documentation

Showing up to 5 results
|